Location: Caltech
(34.1382°N, 118.1253°W)
Time: 10:19:02
(UTC-08:00)

Courier 1B - Visible Passes

Search period start: 18 December 2014 00:00
Search period end: 28 December 2014 00:00
Orbit: 963 x 1209 km, 28.3° (Epoch: 17 December)

Date Brightness Start Highest point End Pass type
(mag) Time Alt. Az. Time Alt. Az. Time Alt. Az.
18 Dec 10.2 17:08:17 10° WSW 17:13:30 21° SSW 17:18:53 10° SSE visible
20 Dec 10.6 17:17:13 10° SW 17:19:38 12° SSW 17:22:05 10° S visible
26 Dec 10.0 06:13:10 10° SSW 06:17:17 17° SSE 06:21:19 10° ESE visible
27 Dec 10.1 05:20:57 10° S 05:23:45 13° SSE 05:26:31 10° SE visible
